Home   Weather   Wroclaw   Past weeks

Flag for Poland Past Weather in Wroclaw, Poland — Yesterday and Last 2 Weeks

Now
43 °F

Passing clouds.


Feels Like: 35 °F
Forecast: 38 / 50 °F
Wind: 16 mph from Northwest

Location: Wroclaw Ii

Current Time: Feb 21, 2017 at 6:03:05 pm

Latest Report: Feb 21, 2017 at 5:00 pm


Visibility: N/A

Pressure: 29.77 "Hg

Humidity: 76%

Dew Point: 36 °F

Location of WroclawLocation

Past Weather in Wroclaw — Graph

°F

Wroclaw Temperature Yesterday

Maximum temperature yesterday: 48 °F (at 1:30 pm)
Minimum temperature yesterday: 36 °F (at 5:00 am)
Average temperature yesterday: 41 °F

High & Low Weather Summary for the Past Weeks

 TemperatureHumidityPressure
High52 °F (Feb 16, 1:30 pm)100% (Feb 14, 2:30 pm)30.69 "Hg (Feb 14, 2:30 pm)
Low16 °F (Feb 13, 4:30 am)29% (Feb 15, 3:00 pm)29.68 "Hg (Feb 21, 3:00 am)
Average31 °F79%30.33 "Hg
* Reported Feb 6 5:00 pm — Feb 21 5:00 pm, Wroclaw, Weather by CustomWeather, © 2017

Note: Actual official high and low records may vary slightly from our data, if they occured in-between our weather recording intervals... More about our weather records

Advertising

Wroclaw Weather History for the Previous 24 Hours

Scroll right to see more
 ConditionsComfort  
Time TempWeatherWind HumidityBarometerVisibility
5:00 pm
Tue, Feb 21
43 °FPassing clouds.16 mph76%29.77 "HgN/A
4:30 pm45 °FBroken clouds.21 mph76%29.77 "HgN/A
4:00 pm45 °FPassing clouds.17 mph81%29.74 "HgN/A
3:30 pm45 °FPartly sunny.20 mph87%29.74 "HgN/A
3:00 pm46 °FBroken clouds.22 mph82%29.71 "HgN/A
2:30 pm45 °FSprinkles. Broken clouds.21 mph87%29.71 "HgN/A
2:00 pm45 °FSprinkles. Broken clouds.23 mph87%29.71 "HgN/A
1:30 pm46 °FBroken clouds.17 mph87%29.71 "HgN/A
1:00 pm46 °FPartly sunny.14 mph87%29.71 "HgN/A
12:30 pm46 °FPartly sunny.16 mph82%29.71 "HgN/A
12:00 pm46 °FPartly sunny.17 mph87%29.71 "HgN/A
11:30 am46 °FSprinkles. Broken clouds.20 mph87%29.71 "Hg5 mi
11:00 am48 °FLight rain. Partly sunny.15 mph82%29.71 "HgN/A
10:30 am50 °FPassing clouds.16 mph82%29.71 "HgN/A
10:00 am48 °FBroken clouds.16 mph82%29.71 "HgN/A
9:30 am48 °FCloudy.13 mph87%29.71 "HgN/A
9:00 am46 °FBroken clouds.13 mph87%29.71 "HgN/A
8:30 am46 °FBroken clouds.13 mph87%29.71 "HgN/A
8:00 am46 °FPartly sunny.10 mph87%29.71 "HgN/A
7:30 am46 °FPartly sunny.14 mph87%29.71 "HgN/A
7:00 am46 °FPartly sunny.14 mph87%29.68 "HgN/A
6:30 am46 °FPassing clouds.15 mph93%29.68 "HgN/A
6:00 am46 °FRain showers. Partly cloudy.23 mph93%29.68 "Hg2 mi
5:30 am48 °FPassing clouds.22 mph87%29.68 "HgN/A
5:00 am48 °FPassing clouds.22 mph82%29.68 "HgN/A
4:30 am48 °FPassing clouds.18 mph82%29.68 "HgN/A
4:00 am48 °FPassing clouds.20 mph82%29.68 "HgN/A
3:30 am48 °FPassing clouds.20 mph82%29.68 "HgN/A
3:00 am48 °FPassing clouds.18 mph82%29.68 "HgN/A
2:30 am48 °FLight rain. Passing clouds.17 mph82%29.71 "HgN/A
2:00 am48 °FLight rain. Overcast.18 mph82%29.71 "HgN/A
1:30 am46 °FLight rain. Overcast.16 mph87%29.71 "HgN/A
1:00 am45 °FOvercast.8 mph81%29.71 "HgN/A
12:30 am43 °FOvercast.7 mph87%29.74 "HgN/A
12:00 am43 °FOvercast.12 mph87%29.71 "HgN/A
11:30 pm
Mon, Feb 20
45 °FOvercast.12 mph81%29.74 "HgN/A
11:00 pm43 °FOvercast.8 mph87%29.74 "HgN/A
10:30 pm41 °FLight rain. Overcast.9 mph93%29.74 "HgN/A
10:00 pm41 °FLight rain. Overcast.10 mph93%29.77 "Hg5 mi
9:30 pm43 °FLight rain. Passing clouds.9 mph87%29.77 "Hg5 mi
9:00 pm43 °FLight rain. Overcast.10 mph87%29.80 "Hg5 mi
8:30 pm43 °FLight rain. Overcast.12 mph87%29.80 "Hg5 mi
8:00 pm43 °FLight rain. Passing clouds.13 mph81%29.80 "HgN/A
7:30 pm43 °FLight rain. Passing clouds.13 mph81%29.83 "HgN/A
7:00 pm43 °FLight rain. Passing clouds.12 mph81%29.83 "HgN/A
6:30 pm43 °FLight rain. Partly cloudy.12 mph81%29.86 "HgN/A
6:00 pm45 °FLight rain. Passing clouds.13 mph76%29.86 "HgN/A
Weather by CustomWeather, © 2017

See weather overviewHow to use our weather pages